Muncie, IN

4:07 PM EST on February 24, 2017 (GMT -0500)
Delaware County-Johnson

Weather History for KMIE - April, 2012

Change the Weather History Date:

Monday, April 30, 2012

  Actual Average Record
Temperature  
Mean Temperature 66 °F 57 °F  
Max Temperature 80 °F 67 °F 86 °F (1970)
Min Temperature 52 °F 46 °F 31 °F (1971)
Degree Days  
Heating Degree Days 0 9  
Month to date heating degree days 364 421  
Since 1 July heating degree days 4615 5592  
Cooling Degree Days 1 1  
Month to date cooling degree days 5 14  
Year to date cooling degree days 42 15  
Growing Degree Days 16 (Base 50)    
Moisture  
Dew Point 54 °F    
Average Humidity 71    
Maximum Humidity 97    
Minimum Humidity 45    
Precipitation  
Precipitation 0.62 in 0.13 in 0.72 in (2006)
Month to date precipitation 1.77 3.67  
Year to date precipitation 8.93 11.16  
Sea Level Pressure  
Sea Level Pressure 29.96 in    
Wind  
Wind Speed 9 mph (SSW)    
Max Wind Speed 30 mph    
Max Gust Speed 41 mph    
Visibility 8 miles    
Events Rain , Thunderstorm    
T = Trace of Precipitation, MM = Missing Value Source: NWS Daily Summary

Daily Weather History Graph

Daily Weather History Graph

Search for Another Location

Airport or City:

Trip Planner

Search our weather history database for the weather conditions in past years. The results will help you decide how hot, cold, wet, or windy it might be!

Date:

Astronomy

Apr. 30, 2012 Rise Set
Actual Time 6:41 AM EDT 8:36 PM EDT
Civil Twilight 6:12 AM EDT 9:05 PM EDT
Nautical Twilight 5:36 AM EDT 9:41 PM EDT
Astronomical Twilight 4:58 AM EDT 10:20 PM EDT
Moon 2:31 PM EDT (4/30) 3:06 AM EDT (4/30)
Length of Visible Light 14h 53m
Length of Day
13h 54m
Waxing Gibbous, 63% of the Moon is Illuminated
Apr 30
Waxing Gibbous
May 5
Full
May 12
Last Quarter
May 20
New
May 28
First Quarter

Hourly Weather History & Observations

Time (EDT) Temp. Dew Point Humidity Pressure Visibility Wind Dir Wind Speed Gust Speed Precip Events Conditions
12:53 AM 55.0 °F 37.0 °F 51% 30.09 in 10.0 mi ESE 9.2 mph - N/A   Clear
1:53 AM 55.0 °F 37.0 °F 51% 30.06 in 10.0 mi ESE 9.2 mph - N/A   Overcast
2:53 AM 53.1 °F 37.9 °F 57% 30.04 in 10.0 mi SE 8.1 mph - N/A   Mostly Cloudy
3:03 AM 57.2 °F 37.4 °F 48% 30.05 in 10.0 mi SE 6.9 mph - N/A Thunderstorm Mostly Cloudy
3:21 AM 57.2 °F 37.4 °F 48% 30.05 in 10.0 mi SSE 9.2 mph - N/A   Overcast
3:53 AM 55.9 °F 42.1 °F 60% 30.03 in 10.0 mi SSE 4.6 mph - N/A   Overcast
4:53 AM 57.0 °F 43.0 °F 59% 30.01 in 10.0 mi SSE 8.1 mph - N/A   Scattered Clouds
5:53 AM 59.0 °F 46.9 °F 64% 29.99 in 10.0 mi South 9.2 mph 19.6 mph N/A   Partly Cloudy
6:53 AM 59.0 °F 48.9 °F 69% 30.00 in 10.0 mi South 11.5 mph - N/A   Partly Cloudy
7:53 AM 60.1 °F 51.1 °F 72% 30.01 in 10.0 mi South 9.2 mph - N/A   Overcast
8:53 AM 61.0 °F 53.1 °F 75% 30.01 in 10.0 mi South 9.2 mph - N/A   Overcast
9:53 AM 66.0 °F 57.0 °F 73% 30.01 in 10.0 mi SW 10.4 mph - N/A   Mostly Cloudy
10:53 AM 69.1 °F 57.9 °F 68% 29.97 in 10.0 mi SSW 9.2 mph - N/A   Clear
11:53 AM 72.0 °F 57.9 °F 61% 29.96 in 10.0 mi SSW 8.1 mph - N/A   Clear
12:53 PM 75.9 °F 57.9 °F 54% 29.95 in 10.0 mi SW 6.9 mph 16.1 mph N/A   Clear
1:53 PM 78.1 °F 55.9 °F 46% 29.93 in 10.0 mi WSW 11.5 mph - N/A   Clear
2:53 PM 79.0 °F 57.9 °F 48% 29.92 in 10.0 mi WSW 13.8 mph 21.9 mph N/A   Partly Cloudy
3:53 PM 78.1 °F 57.0 °F 48% 29.88 in 10.0 mi SSW 15.0 mph 19.6 mph N/A   Partly Cloudy
4:53 PM 79.0 °F 55.0 °F 44% 29.86 in 10.0 mi SW 18.4 mph 26.5 mph N/A   Scattered Clouds
5:53 PM 75.0 °F 55.9 °F 51% 29.90 in 9.0 mi West 20.7 mph 32.2 mph 0.00 in Rain Light Rain
6:23 PM 62.6 °F 60.8 °F 94% 29.93 in 2.0 mi NW 11.5 mph - 0.26 in Rain Heavy Rain
6:53 PM 62.1 °F 60.1 °F 93% 29.92 in 2.5 mi NW 6.9 mph - 0.36 in Rain Rain
6:57 PM 62.6 °F 60.8 °F 94% 29.93 in 3.0 mi NW 5.8 mph - 0.02 in Rain Rain
7:10 PM 62.6 °F 60.8 °F 94% 29.94 in 2.5 mi NW 8.1 mph - 0.07 in Rain Rain
7:20 PM 62.6 °F 60.8 °F 94% 29.93 in 3.0 mi NW 6.9 mph - 0.10 in Rain Rain
7:28 PM 62.6 °F 60.8 °F 94% 29.93 in 2.0 mi NW 4.6 mph - 0.14 in Rain Rain
7:48 PM 62.6 °F 60.8 °F 94% 29.93 in 1.5 mi Calm Calm - 0.22 in Rain Heavy Rain
7:53 PM 62.1 °F 60.1 °F 93% 29.92 in 2.0 mi Calm Calm - 0.23 in Rain Rain
8:01 PM 62.6 °F 60.8 °F 94% 29.93 in 6.0 mi Calm Calm - 0.00 in Rain Light Rain
8:39 PM 62.6 °F 60.8 °F 94% 29.93 in 7.0 mi Calm Calm - 0.03 in Rain Light Rain
8:53 PM 62.1 °F 60.1 °F 93% 29.91 in 10.0 mi Calm Calm - 0.03 in Rain Light Rain
9:46 PM 62.6 °F 59.0 °F 88% 29.94 in 10.0 mi SW 4.6 mph - 0.00 in   Mostly Cloudy
9:53 PM 62.1 °F 59.0 °F 90% 29.93 in 10.0 mi SW 5.8 mph - 0.00 in   Overcast
10:53 PM 61.0 °F 59.0 °F 93% 29.94 in 9.0 mi SW 4.6 mph - N/A   Scattered Clouds
11:08 PM 60.8 °F 59.0 °F 94% 29.96 in 9.0 mi SW 4.6 mph - N/A   Mostly Cloudy
11:25 PM 60.8 °F 59.0 °F 94% 29.96 in 8.0 mi SSW 5.8 mph - N/A   Overcast
11:53 PM 61.0 °F 59.0 °F 93% 29.94 in 7.0 mi SW 5.8 mph - N/A   Mostly Cloudy